KLM58F ENZV-EHAM

Flight info

Callsign KLM58F
Flight time 1h 19m
Altitude 35000
Route RUMOG DCT GREFI DCT BLUFA
Aircraft A21N/M-SDE3FGHIRWY/LB1

Departure

Time 2026-05-06 17:25
Airport Stavanger Airport, Sola (ENZV)

Arrival

Time 2026-05-06 18:44
Airport Amsterdam Airport Schiphol (EHAM)
Time Latitude Longitude Altitude Speed Heading
2026-05-06 17:04 58.88087 5.62970 25 ft 0 kts 314°
2026-05-06 17:17 58.88078 5.62988 25 ft 2 kts 312°
2026-05-06 17:17 58.88068 5.63009 25 ft 2 kts 313°
2026-05-06 17:17 58.88058 5.63030 25 ft 2 kts 313°
2026-05-06 17:17 58.88048 5.63052 25 ft 2 kts 313°
2026-05-06 17:18 58.88038 5.63073 25 ft 2 kts 313°
2026-05-06 17:18 58.88031 5.63087 25 ft 0 kts 334°
2026-05-06 17:18 58.88025 5.63089 25 ft 1 kts 33°
2026-05-06 17:18 58.88020 5.63073 25 ft 2 kts 70°
2026-05-06 17:19 58.88012 5.63048 25 ft 2 kts 54°
2026-05-06 17:19 58.88005 5.63023 25 ft 2 kts 65°
2026-05-06 17:19 58.87998 5.62997 25 ft 2 kts 67°
2026-05-06 17:19 58.87994 5.62975 25 ft 0 kts 72°
2026-05-06 17:20 58.87993 5.62967 25 ft 0 kts 73°
2026-05-06 17:21 58.87993 5.62984 25 ft 3 kts 93°
2026-05-06 17:22 58.87982 5.63075 25 ft 11 kts 103°
2026-05-06 17:22 58.87956 5.63249 26 ft 12 kts 107°
2026-05-06 17:22 58.87900 5.63328 26 ft 12 kts 192°
2026-05-06 17:22 58.87795 5.63289 25 ft 17 kts 181°
2026-05-06 17:23 58.87663 5.63290 25 ft 20 kts 180°
2026-05-06 17:23 58.87510 5.63293 25 ft 23 kts 179°
2026-05-06 17:23 58.87351 5.63297 25 ft 22 kts 179°
2026-05-06 17:23 58.87146 5.63303 25 ft 20 kts 180°
2026-05-06 17:24 58.87061 5.63303 27 ft 15 kts 176°
2026-05-06 17:24 58.86978 5.63405 28 ft 14 kts 132°
2026-05-06 17:24 58.86950 5.63589 30 ft 14 kts 89°
2026-05-06 17:24 58.86958 5.63760 32 ft 11 kts 62°
2026-05-06 17:25 58.87192 5.63796 31 ft 65 kts 359°
2026-05-06 17:25 58.87613 5.63781 29 ft 115 kts 359°
2026-05-06 17:25 58.88613 5.63753 100 ft 168 kts 358°
2026-05-06 17:25 58.89808 5.63710 755 ft 176 kts 357°
2026-05-06 17:26 58.91095 5.63646 1373 ft 196 kts 357°
2026-05-06 17:26 58.92527 5.63594 1823 ft 219 kts 357°
2026-05-06 17:26 58.94083 5.63540 2474 ft 234 kts 357°
2026-05-06 17:26 58.95762 5.63479 3211 ft 246 kts 357°
2026-05-06 17:27 58.97471 5.63419 4106 ft 251 kts 357°
2026-05-06 17:27 58.99197 5.63355 4989 ft 255 kts 357°
2026-05-06 17:27 59.00967 5.63295 5846 ft 260 kts 357°
2026-05-06 17:27 59.02786 5.63235 6661 ft 265 kts 357°
2026-05-06 17:28 59.04632 5.63353 7407 ft 272 kts 10°
2026-05-06 17:28 59.06313 5.64957 8134 ft 280 kts 39°
2026-05-06 17:28 59.07483 5.67983 8891 ft 286 kts 66°
2026-05-06 17:28 59.07817 5.71777 9617 ft 292 kts 94°
2026-05-06 17:29 59.07189 5.75505 10328 ft 297 kts 123°
2026-05-06 17:29 59.05713 5.78287 10762 ft 310 kts 152°
2026-05-06 17:29 59.03661 5.79786 11125 ft 324 kts 163°
2026-05-06 17:29 59.01470 5.81143 11457 ft 341 kts 163°
2026-05-06 17:30 58.99151 5.82631 11776 ft 357 kts 163°
2026-05-06 17:30 58.96770 5.84173 12076 ft 372 kts 163°
2026-05-06 17:30 58.94270 5.85806 12464 ft 384 kts 163°
2026-05-06 17:30 58.91752 5.87461 13066 ft 387 kts 164°
2026-05-06 17:31 58.89209 5.89136 13686 ft 390 kts 164°
2026-05-06 17:31 58.86622 5.90839 14275 ft 394 kts 164°
2026-05-06 17:31 58.84033 5.92547 14832 ft 397 kts 164°
2026-05-06 17:31 58.81435 5.94261 15370 ft 400 kts 165°
2026-05-06 17:32 58.78784 5.96009 15920 ft 404 kts 165°
2026-05-06 17:32 58.76119 5.97764 16481 ft 408 kts 165°
2026-05-06 17:32 58.73459 5.99511 17042 ft 411 kts 165°
2026-05-06 17:32 58.70747 6.01288 17597 ft 414 kts 165°
2026-05-06 17:33 58.68021 6.03069 18136 ft 417 kts 165°
2026-05-06 17:33 58.65280 6.04857 18662 ft 420 kts 166°
2026-05-06 17:33 58.62507 6.06662 19179 ft 423 kts 166°
2026-05-06 17:33 58.59738 6.08462 19679 ft 426 kts 166°
2026-05-06 17:34 58.56927 6.10284 20167 ft 429 kts 166°
2026-05-06 17:34 58.54105 6.12110 20637 ft 432 kts 166°
2026-05-06 17:34 58.51249 6.13956 21099 ft 434 kts 166°
2026-05-06 17:34 58.48374 6.15810 21537 ft 438 kts 166°
2026-05-06 17:35 58.45488 6.17666 21969 ft 440 kts 166°
2026-05-06 17:35 58.42613 6.19513 22398 ft 443 kts 166°
2026-05-06 17:35 58.39694 6.21386 22821 ft 445 kts 166°
2026-05-06 17:36 58.33730 6.24362 23632 ft 443 kts 175°
2026-05-06 17:36 58.30695 6.25110 24014 ft 442 kts 180°
2026-05-06 17:36 58.27659 6.25506 24387 ft 443 kts 181°
2026-05-06 17:36 58.24566 6.25872 24752 ft 445 kts 181°
2026-05-06 17:37 58.21502 6.26230 25103 ft 447 kts 181°
2026-05-06 17:37 58.18397 6.26594 25454 ft 448 kts 181°
2026-05-06 17:37 58.15293 6.26961 25891 ft 447 kts 181°
2026-05-06 17:37 58.12229 6.27326 26364 ft 445 kts 182°
2026-05-06 17:38 58.09132 6.27695 26832 ft 443 kts 182°
2026-05-06 17:38 58.06102 6.28054 27277 ft 441 kts 182°
2026-05-06 17:38 58.03055 6.28415 27725 ft 439 kts 182°
2026-05-06 17:38 58.00026 6.28774 28172 ft 437 kts 182°
2026-05-06 17:39 57.97030 6.29129 28629 ft 435 kts 182°
2026-05-06 17:39 57.94020 6.29485 29090 ft 432 kts 182°
2026-05-06 17:39 57.91041 6.29837 29545 ft 430 kts 182°
2026-05-06 17:39 57.88059 6.30188 29998 ft 428 kts 182°
2026-05-06 17:40 57.85129 6.30532 30471 ft 425 kts 182°
2026-05-06 17:40 57.82179 6.30878 30951 ft 422 kts 182°
2026-05-06 17:40 57.79280 6.31217 31416 ft 420 kts 182°
2026-05-06 17:40 57.76401 6.31552 31863 ft 417 kts 182°
2026-05-06 17:41 57.73529 6.31886 32269 ft 414 kts 182°
2026-05-06 17:41 57.70668 6.32218 32644 ft 413 kts 182°
2026-05-06 17:41 57.67837 6.32546 32989 ft 411 kts 182°
2026-05-06 17:41 57.64976 6.32877 33312 ft 410 kts 182°
2026-05-06 17:42 57.62156 6.33202 33569 ft 410 kts 182°
2026-05-06 17:42 57.59285 6.33532 33793 ft 411 kts 182°
2026-05-06 17:42 57.56469 6.33725 34005 ft 410 kts 185°
2026-05-06 17:42 57.53605 6.33737 34216 ft 410 kts 186°
2026-05-06 17:43 57.50784 6.33714 34398 ft 410 kts 186°
2026-05-06 17:43 57.47918 6.33690 34575 ft 411 kts 186°
2026-05-06 17:43 57.45073 6.33672 34750 ft 412 kts 186°
2026-05-06 17:43 57.42234 6.33672 34919 ft 413 kts 186°
2026-05-06 17:44 57.36467 6.33680 35033 ft 414 kts 186°
2026-05-06 17:44 57.30771 6.33687 35040 ft 413 kts 186°
2026-05-06 17:45 57.25051 6.33690 35012 ft 413 kts 186°
2026-05-06 17:45 57.19295 6.33690 35001 ft 414 kts 185°
2026-05-06 17:46 57.13563 6.33689 34991 ft 414 kts 185°
2026-05-06 17:46 57.07824 6.33687 34989 ft 414 kts 185°
2026-05-06 17:47 57.02088 6.33683 34992 ft 414 kts 185°
2026-05-06 17:47 56.96323 6.33679 34991 ft 415 kts 185°
2026-05-06 17:48 56.90572 6.33674 34991 ft 415 kts 185°
2026-05-06 17:48 56.84832 6.33670 34990 ft 415 kts 185°
2026-05-06 17:49 56.79068 6.33665 34988 ft 416 kts 185°
2026-05-06 17:49 56.73318 6.33660 34986 ft 416 kts 185°
2026-05-06 17:50 56.67540 6.33654 34984 ft 416 kts 185°
2026-05-06 17:50 56.61760 6.33648 34983 ft 416 kts 185°
2026-05-06 17:51 56.56016 6.33643 34981 ft 416 kts 184°
2026-05-06 17:51 56.50256 6.33639 34980 ft 416 kts 184°
2026-05-06 17:52 56.44468 6.33634 34978 ft 416 kts 184°
2026-05-06 17:52 56.38726 6.33633 34977 ft 417 kts 184°
2026-05-06 17:53 56.32926 6.33631 34975 ft 417 kts 184°
2026-05-06 17:53 56.27160 6.33628 34974 ft 417 kts 184°
2026-05-06 17:54 56.21370 6.33624 34972 ft 417 kts 184°
2026-05-06 17:54 56.15591 6.33620 34971 ft 418 kts 184°
2026-05-06 17:55 56.09808 6.33617 34969 ft 418 kts 184°
2026-05-06 17:55 56.03986 6.33613 34968 ft 418 kts 184°
2026-05-06 17:56 55.98226 6.33609 34967 ft 418 kts 184°
2026-05-06 17:56 55.92446 6.33604 34966 ft 418 kts 184°
2026-05-06 17:57 55.86642 6.33599 34965 ft 418 kts 184°
2026-05-06 17:57 55.80844 6.33593 34961 ft 419 kts 184°
2026-05-06 17:58 55.75037 6.33588 34958 ft 419 kts 184°
2026-05-06 17:58 55.68944 6.33582 34956 ft 418 kts 184°
2026-05-06 17:59 55.62680 6.33576 34956 ft 419 kts 184°
2026-05-06 17:59 55.56897 6.33570 34955 ft 419 kts 184°
2026-05-06 18:00 55.51064 6.33567 34955 ft 419 kts 184°
2026-05-06 18:00 55.45245 6.33558 34955 ft 420 kts 184°
2026-05-06 18:01 55.39397 6.33548 34954 ft 420 kts 184°
2026-05-06 18:01 55.33601 6.33540 34953 ft 420 kts 184°
2026-05-06 18:02 55.27760 6.33533 34953 ft 420 kts 183°
2026-05-06 18:02 55.21923 6.33527 34953 ft 421 kts 183°
2026-05-06 18:03 55.16090 6.33521 34953 ft 421 kts 183°
2026-05-06 18:03 55.10266 6.33515 34952 ft 421 kts 183°
2026-05-06 18:04 55.04408 6.33511 34950 ft 422 kts 183°
2026-05-06 18:04 54.98555 6.33506 34947 ft 422 kts 183°
2026-05-06 18:05 54.92693 6.33500 34945 ft 422 kts 183°
2026-05-06 18:05 54.86831 6.33493 34945 ft 423 kts 183°
2026-05-06 18:06 54.80952 6.33482 34944 ft 424 kts 183°
2026-05-06 18:06 54.75112 6.33473 34944 ft 424 kts 182°
2026-05-06 18:07 54.69191 6.33469 34943 ft 425 kts 182°
2026-05-06 18:07 54.63306 6.33463 34943 ft 425 kts 182°
2026-05-06 18:08 54.57427 6.33445 34942 ft 425 kts 182°
2026-05-06 18:08 54.51545 6.33429 34942 ft 426 kts 182°
2026-05-06 18:09 54.45625 6.33418 34942 ft 426 kts 182°
2026-05-06 18:09 54.39697 6.33410 34940 ft 427 kts 182°
2026-05-06 18:10 54.33735 6.33406 34936 ft 430 kts 182°
2026-05-06 18:10 54.27760 6.33413 34938 ft 433 kts 182°
2026-05-06 18:11 54.21777 6.33418 34942 ft 434 kts 182°
2026-05-06 18:11 54.15746 6.33422 34942 ft 434 kts 182°
2026-05-06 18:12 54.09731 6.33423 34941 ft 434 kts 182°
2026-05-06 18:12 54.03680 6.33416 34939 ft 435 kts 182°
2026-05-06 18:13 53.97675 6.33406 34938 ft 435 kts 182°
2026-05-06 18:13 53.91630 6.33399 34936 ft 435 kts 182°
2026-05-06 18:14 53.85614 6.33392 34933 ft 435 kts 182°
2026-05-06 18:14 53.79584 6.33391 34888 ft 436 kts 182°
2026-05-06 18:15 53.76552 6.33390 34671 ft 435 kts 182°
2026-05-06 18:15 53.73534 6.33388 34458 ft 432 kts 182°
2026-05-06 18:15 53.70571 6.33387 34247 ft 430 kts 182°
2026-05-06 18:15 53.67565 6.33386 33995 ft 428 kts 182°
2026-05-06 18:16 53.64642 6.33385 33730 ft 426 kts 182°
2026-05-06 18:16 53.61692 6.33384 33463 ft 425 kts 182°
2026-05-06 18:16 53.58742 6.33381 33196 ft 425 kts 182°
2026-05-06 18:16 53.55798 6.33381 32924 ft 426 kts 182°
2026-05-06 18:17 53.52827 6.33381 32649 ft 426 kts 182°
2026-05-06 18:17 53.49867 6.33382 32375 ft 426 kts 182°
2026-05-06 18:17 53.46932 6.33382 32104 ft 427 kts 182°
2026-05-06 18:17 53.43979 6.33382 31808 ft 427 kts 182°
2026-05-06 18:18 53.41013 6.33381 31395 ft 428 kts 182°
2026-05-06 18:18 53.38024 6.33380 30858 ft 428 kts 182°
2026-05-06 18:18 53.35077 6.33380 30281 ft 430 kts 182°
2026-05-06 18:18 53.32070 6.33379 29561 ft 432 kts 182°
2026-05-06 18:19 53.29079 6.33378 28815 ft 434 kts 182°
2026-05-06 18:19 53.26080 6.33377 28064 ft 436 kts 182°
2026-05-06 18:19 53.23076 6.33376 27331 ft 436 kts 181°
2026-05-06 18:19 53.20049 6.33377 26710 ft 433 kts 181°
2026-05-06 18:20 53.17039 6.33376 26144 ft 435 kts 181°
2026-05-06 18:20 53.14021 6.33375 25809 ft 438 kts 181°
2026-05-06 18:20 53.10964 6.33373 25678 ft 441 kts 181°
2026-05-06 18:20 53.07911 6.33371 25711 ft 443 kts 181°
2026-05-06 18:21 53.04808 6.33370 25762 ft 444 kts 181°
2026-05-06 18:21 53.01748 6.33368 25788 ft 445 kts 181°
2026-05-06 18:21 52.98661 6.33366 25801 ft 446 kts 181°
2026-05-06 18:21 52.95528 6.33364 25868 ft 447 kts 181°
2026-05-06 18:22 52.92469 6.33362 25884 ft 445 kts 181°
2026-05-06 18:22 52.89388 6.33359 25465 ft 446 kts 181°
2026-05-06 18:22 52.86281 6.33083 24939 ft 441 kts 192°
2026-05-06 18:22 52.83483 6.31294 24454 ft 433 kts 212°
2026-05-06 18:23 52.81284 6.28058 23941 ft 429 kts 231°
2026-05-06 18:23 52.79578 6.24003 23373 ft 427 kts 236°
2026-05-06 18:23 52.77940 6.20010 22789 ft 423 kts 236°
2026-05-06 18:23 52.76281 6.16009 22175 ft 419 kts 236°
2026-05-06 18:24 52.74649 6.12104 21521 ft 411 kts 235°
2026-05-06 18:24 52.73063 6.08333 20869 ft 395 kts 235°
2026-05-06 18:24 52.71539 6.04723 20220 ft 379 kts 235°
2026-05-06 18:24 52.70068 6.01246 19562 ft 365 kts 235°
2026-05-06 18:25 52.68646 5.97891 18901 ft 352 kts 236°
2026-05-06 18:25 52.67272 5.94655 18243 ft 341 kts 236°
2026-05-06 18:25 52.65932 5.91504 17583 ft 332 kts 236°
2026-05-06 18:25 52.64635 5.88457 16935 ft 327 kts 236°
2026-05-06 18:26 52.63335 5.85409 16276 ft 321 kts 236°
2026-05-06 18:26 52.62071 5.82448 15601 ft 317 kts 236°
2026-05-06 18:26 52.60825 5.79534 14834 ft 314 kts 236°
2026-05-06 18:26 52.59572 5.76606 14053 ft 311 kts 236°
2026-05-06 18:27 52.58346 5.73743 13281 ft 308 kts 236°
2026-05-06 18:27 52.57127 5.70901 12615 ft 302 kts 236°
2026-05-06 18:27 52.55931 5.68116 11960 ft 297 kts 236°
2026-05-06 18:27 52.54754 5.65379 11314 ft 293 kts 237°
2026-05-06 18:28 52.53610 5.62723 10764 ft 288 kts 237°
2026-05-06 18:28 52.52447 5.60022 10221 ft 290 kts 237°
2026-05-06 18:28 52.51284 5.57303 9679 ft 292 kts 238°
2026-05-06 18:28 52.50216 5.54511 9148 ft 294 kts 241°
2026-05-06 18:29 52.49152 5.51623 8611 ft 297 kts 241°
2026-05-06 18:29 52.48094 5.48736 8080 ft 299 kts 241°
2026-05-06 18:29 52.47013 5.45787 7544 ft 302 kts 240°
2026-05-06 18:29 52.45948 5.42887 7017 ft 301 kts 240°
2026-05-06 18:30 52.44890 5.40024 6728 ft 284 kts 241°
2026-05-06 18:30 52.43892 5.37314 6463 ft 277 kts 241°
2026-05-06 18:30 52.42907 5.34639 6208 ft 273 kts 240°
2026-05-06 18:30 52.41933 5.32003 5957 ft 272 kts 239°
2026-05-06 18:31 52.40950 5.29368 5705 ft 271 kts 240°
2026-05-06 18:31 52.39979 5.26722 5448 ft 271 kts 240°
2026-05-06 18:31 52.39014 5.24101 5193 ft 270 kts 239°
2026-05-06 18:31 52.38030 5.21468 4935 ft 269 kts 239°
2026-05-06 18:32 52.37058 5.18857 4683 ft 269 kts 239°
2026-05-06 18:32 52.36091 5.16273 4467 ft 268 kts 239°
2026-05-06 18:32 52.35114 5.13676 4447 ft 269 kts 240°
2026-05-06 18:32 52.34158 5.11061 4442 ft 269 kts 239°
2026-05-06 18:33 52.33173 5.08476 4437 ft 270 kts 238°
2026-05-06 18:33 52.32139 5.05907 4439 ft 271 kts 237°
2026-05-06 18:33 52.31097 5.03360 4440 ft 271 kts 238°
2026-05-06 18:33 52.30031 5.00791 4433 ft 271 kts 237°
2026-05-06 18:34 52.28987 4.98230 4441 ft 271 kts 238°
2026-05-06 18:34 52.27928 4.95682 4179 ft 272 kts 237°
2026-05-06 18:34 52.26887 4.93137 3852 ft 270 kts 237°
2026-05-06 18:34 52.25855 4.90590 3522 ft 268 kts 237°
2026-05-06 18:35 52.24841 4.88083 3239 ft 264 kts 238°
2026-05-06 18:35 52.23847 4.85629 2985 ft 258 kts 238°
2026-05-06 18:35 52.22854 4.83199 2730 ft 253 kts 238°
2026-05-06 18:35 52.21888 4.80836 2488 ft 249 kts 237°
2026-05-06 18:36 52.20940 4.78524 2244 ft 244 kts 238°
2026-05-06 18:36 52.20011 4.76259 2046 ft 239 kts 237°
2026-05-06 18:36 52.19088 4.74016 2039 ft 242 kts 238°
2026-05-06 18:36 52.18137 4.71709 2031 ft 243 kts 238°
2026-05-06 18:37 52.17199 4.69435 2022 ft 243 kts 238°
2026-05-06 18:37 52.16259 4.67161 2021 ft 242 kts 238°
2026-05-06 18:37 52.15324 4.64894 2020 ft 241 kts 237°
2026-05-06 18:37 52.14403 4.62648 2023 ft 241 kts 238°
2026-05-06 18:38 52.13467 4.60379 2023 ft 240 kts 238°
2026-05-06 18:38 52.12561 4.58126 2018 ft 240 kts 244°
2026-05-06 18:38 52.12168 4.55551 2004 ft 226 kts 278°
2026-05-06 18:38 52.12638 4.53326 1991 ft 204 kts 315°
2026-05-06 18:39 52.13740 4.51966 2033 ft 198 kts 338°
2026-05-06 18:39 52.14991 4.51088 2025 ft 195 kts 351°
2026-05-06 18:39 52.16280 4.51213 2046 ft 180 kts 23°
2026-05-06 18:40 52.18361 4.53080 2043 ft 168 kts 33°
2026-05-06 18:40 52.19348 4.54080 2031 ft 168 kts 33°
2026-05-06 18:40 52.20348 4.55098 2028 ft 168 kts 33°
2026-05-06 18:40 52.21330 4.56100 2026 ft 168 kts 33°
2026-05-06 18:41 52.22315 4.57145 2018 ft 168 kts 41°
2026-05-06 18:41 52.23069 4.58572 2027 ft 169 kts 53°
2026-05-06 18:41 52.23717 4.60133 1976 ft 157 kts 56°
2026-05-06 18:41 52.24275 4.61589 1758 ft 149 kts 56°
2026-05-06 18:42 52.24817 4.63017 1558 ft 148 kts 56°
2026-05-06 18:42 52.25351 4.64414 1358 ft 140 kts 56°
2026-05-06 18:42 52.25845 4.65706 1147 ft 130 kts 56°
2026-05-06 18:42 52.26321 4.66953 987 ft 130 kts 56°
2026-05-06 18:43 52.26803 4.68213 817 ft 131 kts 56°
2026-05-06 18:43 52.27291 4.69491 639 ft 133 kts 56°
2026-05-06 18:43 52.27775 4.70772 447 ft 133 kts 58°
2026-05-06 18:43 52.28268 4.72051 264 ft 134 kts 57°
2026-05-06 18:44 52.28751 4.73313 93 ft 129 kts 56°
2026-05-06 18:44 52.29201 4.74482 0 ft 103 kts 57°
2026-05-06 18:44 52.29493 4.75240 -1 ft 57 kts 58°
2026-05-06 18:44 52.29668 4.75680 -3 ft 34 kts 45°
2026-05-06 18:45 52.29832 4.75852 -3 ft 24 kts 28°
2026-05-06 18:45 52.29974 4.75977 -1 ft 21 kts 39°
2026-05-06 18:45 52.30059 4.76167 0 ft 21 kts 58°
2026-05-06 18:45 52.30144 4.76383 -1 ft 22 kts 58°
2026-05-06 18:46 52.30228 4.76605 -2 ft 24 kts 58°
2026-05-06 18:46 52.30317 4.76837 0 ft 23 kts 58°
2026-05-06 18:46 52.30397 4.77029 1 ft 14 kts 33°
2026-05-06 18:46 52.30486 4.76991 2 ft 14 kts 330°
2026-05-06 18:47 52.30563 4.76915 5 ft 11 kts 325°
2026-05-06 18:47 52.30611 4.76818 7 ft 10 kts 302°
2026-05-06 18:47 52.30612 4.76736 7 ft 4 kts 217°
2026-05-06 18:47 52.30582 4.76702 5 ft 4 kts 215°
2026-05-06 18:48 52.30576 4.76696 5 ft 0 kts 216°